Meridian NAS, MS

1:15 PM CDT on June 25, 2017 (GMT -0500)
Meridian Naval Air Station

Weather History for KNMM - February, 2014

Change the Weather History Date:

Sunday, February 2, 2014

  Actual Average Record
Temperature  
Mean Temperature 58 °F -  
Max Temperature 72 °F 56 °F 93 °F (2001)
Min Temperature 42 °F 38 °F 26 °F (2011)
Degree Days  
Heating Degree Days 8    
Growing Degree Days 8 (Base 50)    
Moisture  
Dew Point 59 °F    
Average Humidity 89    
Maximum Humidity 96    
Minimum Humidity 66    
Precipitation  
Precipitation 0.97 in - - ()
Sea Level Pressure  
Sea Level Pressure 29.99 in    
Wind  
Wind Speed 7 mph (South)    
Max Wind Speed 25 mph    
Max Gust Speed 30 mph    
Visibility 7 miles    
Events Fog , Rain , Thunderstorm    
Averages and records for this station are not official NWS values.
T = Trace of Precipitation, MM = Missing Value Source: NWS Daily Summary

Daily Weather History Graph

Daily Weather History Graph

Search for Another Location

Airport or City:

Trip Planner

Search our weather history database for the weather conditions in past years. The results will help you decide how hot, cold, wet, or windy it might be!

Date:

Astronomy

Feb. 02, 2014 Rise Set
Actual Time 6:48 AM CST 5:28 PM CST
Civil Twilight 6:22 AM CST 5:54 PM CST
Nautical Twilight 5:52 AM CST 6:23 PM CST
Astronomical Twilight 5:23 AM CST 6:52 PM CST
Moon 8:27 AM CST (2/2) 8:56 PM CST (2/2)
Length of Visible Light 11h 31m
Length of Day
10h 40m
Waxing Crescent, 11% of the Moon is Illuminated
Feb 2
Waxing Crescent
Feb 6
First Quarter
Feb 14
Full
Feb 22
Last Quarter
Mar 1
New

Hourly Weather History & Observations

Time (CST) Temp. Windchill Dew Point Humidity Pressure Visibility Wind Dir Wind Speed Gust Speed Precip Events Conditions
12:43 AM 61.0 °F - 57.0 °F 87% 30.06 in 8.0 mi Variable 6.9 mph 18.4 mph N/A   Overcast
12:56 AM 60.1 °F - 57.0 °F 90% 30.08 in 9.0 mi South 8.1 mph - N/A   Overcast
1:40 AM 60.1 °F - 57.0 °F 90% 30.05 in 10.0 mi South 4.6 mph - N/A   Overcast
1:56 AM 60.1 °F - 55.9 °F 86% 30.07 in 10.0 mi South 4.6 mph - N/A   Overcast
2:06 AM 60.1 °F - 55.9 °F 86% 30.05 in 10.0 mi South 6.9 mph - N/A   Overcast
2:49 AM 60.1 °F - 55.9 °F 86% 30.04 in 10.0 mi South 5.8 mph - N/A   Overcast
2:56 AM 60.1 °F - 55.9 °F 86% 30.07 in 10.0 mi South 6.9 mph - N/A   Overcast
3:56 AM 60.1 °F - 57.0 °F 90% 30.06 in 10.0 mi South 8.1 mph - N/A   Overcast
4:56 AM 60.1 °F - 55.9 °F 86% 30.06 in 10.0 mi Variable 4.6 mph - N/A   Overcast
5:04 AM 60.1 °F - 55.9 °F 86% 30.04 in 10.0 mi Variable 4.6 mph - N/A   Overcast
5:43 AM 61.0 °F - 57.0 °F 87% 30.04 in 10.0 mi South 4.6 mph - N/A   Overcast
5:56 AM 60.1 °F - 57.0 °F 90% 30.07 in 10.0 mi South 6.9 mph - N/A   Overcast
6:36 AM 60.1 °F - 57.9 °F 93% 30.05 in 9.0 mi South 3.5 mph - N/A   Overcast
6:56 AM 60.1 °F - 57.9 °F 93% 30.08 in 7.0 mi South 5.8 mph - N/A   Overcast
7:12 AM 60.1 °F - 57.9 °F 93% 30.05 in 4.0 mi South 3.5 mph - N/A   Overcast
7:34 AM 60.1 °F - 59.0 °F 96% 30.06 in 2.5 mi SSE 5.8 mph - N/A   Overcast
7:53 AM 60.8 °F - 59.0 °F 94% 30.06 in 3.0 mi South 5.8 mph - N/A   Overcast
7:56 AM 60.1 °F - 59.0 °F 96% 30.08 in 3.0 mi SSE 5.8 mph - N/A   Overcast
8:04 AM 60.1 °F - 59.0 °F 96% 30.04 in 1.8 mi SE 8.1 mph - N/A   Overcast
8:32 AM 60.1 °F - 59.0 °F 96% 30.04 in 3.0 mi SSE 10.4 mph - N/A   Overcast
8:56 AM 62.1 °F - 59.0 °F 90% 30.07 in 9.0 mi SSE 13.8 mph 21.9 mph N/A   Overcast
9:09 AM 63.0 °F - 59.0 °F 87% 30.04 in 10.0 mi SSE 11.5 mph - N/A   Overcast
9:25 AM 63.0 °F - 59.0 °F 87% 30.05 in 10.0 mi South 8.1 mph 19.6 mph N/A   Overcast
9:56 AM 64.0 °F - 59.0 °F 84% 30.07 in 10.0 mi South 10.4 mph - N/A   Overcast
10:06 AM 64.9 °F - 59.0 °F 81% 30.04 in 10.0 mi SSE 8.1 mph - N/A   Overcast
10:47 AM 68.0 °F - 59.0 °F 73% 30.03 in 10.0 mi South 8.1 mph 19.6 mph N/A   Mostly Cloudy
10:56 AM 69.1 °F - 59.0 °F 70% 30.05 in 10.0 mi South 11.5 mph 19.6 mph N/A   Mostly Cloudy
11:16 AM 68.0 °F - 59.0 °F 73% 30.02 in 10.0 mi SSE 9.2 mph 18.4 mph N/A   Overcast
11:42 AM 72.0 °F - 60.1 °F 66% 30.00 in 10.0 mi SSW 10.4 mph 16.1 mph N/A   Mostly Cloudy
11:56 AM 70.0 °F - 60.1 °F 71% 30.02 in 10.0 mi South 9.2 mph - N/A   Mostly Cloudy
12:04 PM 71.1 °F - 60.1 °F 68% 29.99 in 10.0 mi Variable 5.8 mph - N/A   Overcast
12:56 PM 70.0 °F - 61.0 °F 73% 29.97 in 10.0 mi South 10.4 mph - N/A   Overcast
1:34 PM 66.0 °F - 63.0 °F 90% 29.92 in 1.8 mi Variable 3.5 mph - 0.02 in Rain Heavy Rain
1:42 PM 66.0 °F - 63.0 °F 90% 29.92 in 2.0 mi SSW 4.6 mph - 0.04 in Rain Rain
1:56 PM 66.0 °F - 63.0 °F 90% 29.95 in 1.8 mi SW 3.5 mph - 0.08 in Rain Rain
2:03 PM 64.9 °F - 63.0 °F 93% 29.91 in 0.2 mi Variable 5.8 mph - 0.24 in Fog , Rain Heavy Rain
2:29 PM 64.9 °F - 63.0 °F 93% 29.91 in 5.0 mi SE 5.8 mph - 0.28 in Rain Light Rain
2:36 PM 64.9 °F - 63.0 °F 93% 29.92 in 2.0 mi South 3.5 mph - 0.33 in Rain Light Rain
2:41 PM 64.0 °F - 63.0 °F 96% 29.91 in 1.2 mi SE 4.6 mph - 0.36 in Rain Heavy Rain
2:43 PM 64.0 °F - 63.0 °F 96% 29.92 in 1.0 mi South 4.6 mph - 0.37 in Rain , Thunderstorm Heavy Thunderstorms and Rain
2:56 PM 64.0 °F - 62.1 °F 93% 29.93 in 1.0 mi WSW 8.1 mph - 0.53 in Rain Rain
3:07 PM 64.0 °F - 62.1 °F 93% 29.91 in 4.0 mi Variable 4.6 mph - 0.01 in Rain Light Rain
3:09 PM 64.0 °F - 62.1 °F 93% 29.91 in 5.0 mi Variable 4.6 mph - 0.01 in Rain Light Rain
3:18 PM 64.0 °F - 62.1 °F 93% 29.90 in 3.0 mi SSE 4.6 mph - 0.02 in Rain Light Rain
3:49 PM 64.0 °F - 62.1 °F 93% 29.92 in 3.0 mi Variable 5.8 mph - 0.04 in Rain Light Rain
3:56 PM 64.0 °F - 62.1 °F 93% 29.95 in 3.0 mi South 5.8 mph - 0.05 in Rain Light Rain
4:03 PM 64.0 °F - 62.1 °F 93% 29.91 in 3.0 mi South 6.9 mph - 0.02 in Rain , Thunderstorm Thunderstorms and Rain
4:56 PM 64.0 °F - 63.0 °F 96% 29.94 in 7.0 mi Variable 4.6 mph - 0.05 in   Overcast
5:41 PM 64.0 °F - 62.1 °F 93% 29.87 in 6.0 mi SE 6.9 mph - 0.03 in Rain Light Rain
5:51 PM 64.4 °F - 62.6 °F 94% 29.88 in 7.0 mi SE 6.9 mph - 0.03 in   Overcast
5:56 PM 64.0 °F - 62.1 °F 93% 29.91 in 6.0 mi SSE 5.8 mph - 0.03 in   Overcast
6:56 PM 66.0 °F - 64.0 °F 93% 29.90 in 10.0 mi South 9.2 mph - 0.00 in   Overcast
7:41 PM 66.9 °F - 64.0 °F 90% 29.86 in 10.0 mi South 12.7 mph 24.2 mph N/A   Overcast
7:56 PM 66.9 °F - 64.0 °F 90% 29.89 in 10.0 mi South 11.5 mph 21.9 mph N/A   Overcast
8:56 PM 66.9 °F - 64.9 °F 93% 29.88 in 3.0 mi South 6.9 mph 18.4 mph 0.04 in Rain Rain
9:22 PM 63.0 °F - 60.1 °F 90% 29.91 in 2.5 mi NW 25.3 mph 29.9 mph 0.08 in Rain Rain
9:31 PM 52.0 °F - 50.0 °F 93% 29.92 in 3.0 mi NW 23.0 mph 27.6 mph 0.10 in Rain Rain
9:56 PM 46.9 °F - 44.1 °F 90% 29.98 in 8.0 mi NW 15.0 mph - 0.13 in Rain Light Rain
10:07 PM 46.0 °F 39.0 °F 44.1 °F 93% 29.96 in 10.0 mi NNW 17.3 mph - 0.00 in   Overcast
10:56 PM 43.0 °F 35.7 °F 41.0 °F 93% 29.99 in 9.0 mi NNW 15.0 mph - 0.01 in Rain Light Rain
11:56 PM 42.1 °F 36.1 °F 39.9 °F 92% 30.01 in 7.0 mi NW 10.4 mph - 0.05 in Rain Light Rain